Location: New Plymouth
(39.0670°S, 174.0830°E)
Time: 07:54:33
(UTC+13:00)

STRAND 1 - Pass Details

Date: 28 August 2019
Orbit: 769 x 780 km, 98.5° (Epoch: 17 October)

Event Time Altitude Azimuth Distance (km) Brightness Sun altitude
Rises 19:29:45 0° 1° (N) 3,247 ? -18.7°
Reaches altitude 10° 19:32:06 10° 356° (N) 2,330 ? -19.1°
Maximum altitude 19:37:07 51° 280° (W) 984 ? -20.1°
Drops below altitude 10° 19:42:12 10° 204° (SSW) 2,366 ? -21.1°
Sets 19:44:37 0° 198° (SSW) 3,302 ? -21.5°
